Location: Unspecified
(0.0000°N, 0.0000°E)
Time: 09:10:42
(UTC+00:00)

Vanguard 1 Rocket - All Passes

Search period start: 03 April 2020 00:00
Search period end: 13 April 2020 00:00
Orbit: 650 x 4227 km, 34.3° (Epoch: 02 April)

Date Brightness Start Highest point End Pass type
(mag) Time Alt. Az. Time Alt. Az. Time Alt. Az.
03 Apr - 00:38:33 10° WNW 00:56:11 61° SW 01:05:03 10° SE visible
03 Apr - 10:42:06 10° SSW 10:48:29 46° SE 11:00:17 10° ENE daylight
03 Apr - 13:06:23 10° WSW 13:15:51 51° NNW 13:34:07 10° NE daylight
03 Apr - 15:37:00 10° WNW 15:49:58 25° NNW 16:08:21 10° NE daylight
03 Apr - 18:13:49 10° NW 18:31:32 23° N 18:49:08 10° NE visible
03 Apr - 20:48:12 10° NW 21:11:15 39° NNE 21:26:35 10° E visible
03 Apr - 23:21:56 10° NW 23:43:42 88° NE 23:54:37 10° SE visible
04 Apr - 02:00:11 10° W 02:10:29 24° SW 02:17:00 10° S night (unlit)
04 Apr - 09:33:14 10° S 09:37:36 20° SE 09:43:47 10° E daylight
04 Apr - 11:55:16 10° WSW 12:03:00 75° NW 12:18:46 10° NE daylight
04 Apr - 14:22:57 10° WNW 14:33:58 30° NNW 14:51:50 10° NE daylight
04 Apr - 16:57:45 10° NW 17:12:38 21° N 17:30:11 10° NE daylight
04 Apr - 19:32:51 10° NW 19:54:28 31° NNE 20:11:46 10° ENE visible
04 Apr - 22:05:54 10° NW 22:29:57 64° NNE 22:43:15 10° ESE visible
05 Apr - 00:41:50 10° WNW 00:58:51 47° SW 01:07:51 10° SSE visible
05 Apr - 10:44:58 10° SW 10:51:18 65° SE 11:03:32 10° ENE daylight
05 Apr - 13:10:18 10° W 13:19:28 39° NNW 13:36:11 10° NE daylight
05 Apr - 15:42:12 10° NW 15:54:37 22° N 16:11:27 10° NE daylight
05 Apr - 18:17:39 10° NW 18:36:26 25° NNE 18:54:37 10° ENE visible
05 Apr - 20:50:27 10° NW 21:14:52 48° NNE 21:30:43 10° E visible
05 Apr - 23:24:34 10° WNW 23:46:31 75° SW 23:57:42 10° SE visible
06 Apr - 02:05:18 10° W 02:13:23 18° SW 02:19:04 10° S night (unlit)
06 Apr - 09:35:31 10° SSW 09:40:25 29° SE 09:48:06 10° E daylight
06 Apr - 11:58:46 10° WSW 12:06:18 55° NNW 12:21:08 10° NE daylight
06 Apr - 14:27:45 10° WNW 14:38:11 24° NNW 14:54:06 10° NNE daylight
06 Apr - 17:02:29 10° NW 17:17:45 21° N 17:35:15 10° NE daylight
06 Apr - 19:35:30 10° NW 19:58:30 36° NNE 20:16:31 10° E visible
06 Apr - 22:08:12 10° NW 22:33:00 78° NE 22:46:39 10° ESE visible
07 Apr - 00:45:37 10° WNW 01:01:30 36° SW 01:10:29 10° SSE visible
07 Apr - 10:48:05 10° SW 10:54:18 89° NW 11:06:27 10° NE daylight
07 Apr - 13:14:35 10° WNW 13:23:20 30° NNW 13:38:11 10° NE daylight
07 Apr - 15:47:28 10° NW 15:59:30 19° N 16:15:13 10° NE daylight
07 Apr - 18:20:55 10° NNW 18:41:00 28° NNE 19:00:01 10° ENE visible
07 Apr - 20:52:41 10° NW 21:18:12 58° NNE 21:34:31 10° ESE visible
07 Apr - 23:27:30 10° WNW 23:49:10 61° SW 00:00:35 10° SE visible
08 Apr - 02:11:34 10° WSW 02:16:30 13° SW 02:20:29 10° SSW night (unlit)
08 Apr - 09:38:10 10° SSW 09:43:16 44° SE 09:51:50 10° ENE daylight
08 Apr - 12:02:34 10° W 12:09:50 40° NNW 12:23:18 10° NE daylight
08 Apr - 14:32:55 10° NW 14:42:39 20° N 14:56:37 10° NNE daylight
08 Apr - 17:06:37 10° NNW 17:22:43 22° NNE 17:40:50 10° ENE daylight
08 Apr - 19:37:55 10° NW 20:02:12 43° NNE 20:20:53 10° E visible
08 Apr - 22:10:41 10° NW 22:35:50 88° SW 22:49:48 10° SE visible
09 Apr - 00:49:56 10° W 01:04:16 28° SW 01:12:57 10° SSE visible
09 Apr - 08:29:23 10° S 08:32:35 17° SE 08:36:37 10° E daylight
09 Apr - 10:51:27 10° WSW 10:57:31 63° NNW 11:09:04 10° NE daylight
09 Apr - 13:19:17 10° WNW 13:27:25 23° NNW 13:40:09 10° NNE daylight
09 Apr - 15:52:26 10° NNW 16:04:30 19° N 16:19:49 10° NE daylight
09 Apr - 18:23:48 10° NNW 18:45:11 33° NNE 19:05:08 10° E visible
09 Apr - 20:54:59 10° NW 21:21:16 69° NE 21:38:01 10° ESE visible
09 Apr - 23:30:49 10° WNW 23:51:46 49° SW 00:03:21 10° SSE visible
10 Apr - 09:41:05 10° SW 09:46:13 69° SE 09:55:07 10° ENE daylight
10 Apr - 12:06:42 10° W 12:13:36 29° NNW 12:25:18 10° NNE daylight
10 Apr - 14:38:18 10° NW 14:47:20 17° N 14:59:37 10° NNE daylight
10 Apr - 17:10:10 10° NNW 17:27:25 25° NNE 17:46:34 10° ENE daylight
10 Apr - 19:40:17 10° NW 20:05:33 52° NNE 20:24:53 10° ESE visible
10 Apr - 22:13:23 10° WNW 22:38:29 74° SW 22:52:48 10° SE visible
11 Apr - 00:54:56 10° W 01:07:11 22° SW 01:15:16 10° S visible
11 Apr - 08:31:32 10° SSW 08:35:33 27° SE 08:41:02 10° E daylight
11 Apr - 10:55:06 10° W 11:00:57 42° NNW 11:11:26 10° NE daylight
11 Apr - 13:24:27 10° NW 13:31:43 18° N 13:42:09 10° NNE daylight
11 Apr - 15:56:51 10° NNW 16:09:27 19° NNE 16:25:14 10° NE daylight
11 Apr - 18:26:26 10° NW 18:48:57 39° NNE 19:09:50 10° E visible
11 Apr - 20:57:23 10° NW 21:24:05 82° NE 21:41:17 10° ESE visible
11 Apr - 23:34:36 10° WNW 23:54:25 39° SW 00:05:59 10° SSE visible
12 Apr - 09:44:17 10° WSW 09:49:20 77° NW 09:58:03 10° NE daylight
12 Apr - 12:11:20 10° WNW 12:17:33 21° NNW 12:27:07 10° NNE daylight
12 Apr - 14:43:34 10° NNW 14:52:10 16° N 15:03:24 10° NE daylight
12 Apr - 17:13:15 10° NNW 17:31:43 29° NNE 17:52:06 10° ENE daylight
12 Apr - 19:42:38 10° NW 20:08:37 62° NE 20:28:33 10° ESE visible
12 Apr - 22:16:23 10° WNW 22:41:03 61° SW 22:55:37 10° SE visible
